Flag for U.S.A. Weather past 2 weeks in Warren, Michigan, U.S.A.

Now
72 °F

Sunny.


Feels Like: 75 °F
Forecast: 67 / 78 °F
Wind: 12 mph from Northwest

Location: Detroit City Airport

Current Time: Aug 3, 2015 at 11:52:50 AM

Latest Report: Aug 3, 2015 at 10:53 AM


Visibility: 10 mi

Pressure: 29.77 "Hg

Humidity: 68%

Dew point: 61 °F

Location of WarrenLocation

Historic Weather in Warren — Graph

°F

Warren temperature yesterday

Maximum temperature yesterday: 91 °F (at 4:53 PM)
Minimum temperature yesterday: 63 °F (at 11:59 PM)
Average temperature yesterday: 78 °F

Past Weeks' High & Low Weather Summary

 TemperatureHumidityPressure
High91 °F (Aug 2, 4:53 PM)93% (Jul 26, 2:53 AM)30.05 "Hg (Jul 26, 2:53 AM)
Low62 °F (Jul 22, 4:53 AM)29% (Jul 31, 4:53 PM)29.26 "Hg (Jul 19, 12:53 PM)
Average77 °F57%29.89 "Hg
* Reported Jul 19 10:53 AM — Aug 3 10:53 AM, Warren, Weather by CustomWeather, © 2015

Note: Actual official high and low records may vary slightly from our data, if they occured in-between our weather recording intervals... More about our weather records

Advertising

Warren weather history for previous 24 hours

 ConditionsComfort  
Time TempWeatherWind HumidityBarometerVisibility
10:53 AM
Mon, Aug 3
72 °FSunny.12 mph68%29.77 "Hg10 mi
9:53 AM70 °FScattered clouds.13 mph73%29.77 "Hg10 mi
8:53 AM67 °FPartly sunny.12 mph81%29.77 "Hg10 mi
7:53 AM66 °FPartly sunny.13 mph84%29.76 "Hg10 mi
6:53 AM65 °FClear.12 mph87%29.75 "Hg10 mi
5:53 AM65 °FClear.10 mph87%29.74 "Hg10 mi
4:53 AM66 °FClear.10 mph87%29.73 "Hg10 mi
3:53 AM65 °FClear.9 mph87%29.73 "Hg10 mi
3:00 AM63 °FClear.17 mph90%29.70 "Hg10 mi
1:53 AM63 °FThunderstorms. Fog.14 mph93%29.73 "Hg4 mi
12:53 AM63 °FThundershowers. Fog.6 mph93%29.78 "Hg6 mi
11:59 PM
Sun, Aug 2
63 °FThunderstorms. Fog.No wind90%29.81 "Hg3 mi
10:53 PM70 °FThundershowers. Clear.7 mph66%29.78 "Hg10 mi
9:53 PM84 °FClear.16 mph46%29.70 "Hg10 mi
8:53 PM86 °FSunny.23 mph43%29.64 "Hg10 mi
7:53 PM87 °FSunny.23 mph40%29.65 "Hg10 mi
6:53 PM89 °FSunny.22 mph38%29.68 "Hg10 mi
5:53 PM90 °FSunny.18 mph37%29.68 "Hg10 mi
4:53 PM91 °FSunny.22 mph36%29.72 "Hg10 mi
3:53 PM90 °FSunny.23 mph35%29.73 "Hg10 mi
2:53 PM90 °FSunny.21 mph39%29.75 "Hg10 mi
1:53 PM89 °FSunny.20 mph38%29.77 "Hg10 mi
12:53 PM86 °FSunny.21 mph49%29.79 "Hg10 mi
11:53 AM82 °FSunny.13 mph60%29.83 "Hg10 mi
Weather by CustomWeather, © 2015

See weather overviewHow to use our weather pages